Find Starlink 38269

NORAD ID: 100392 Int'l Des: 2026-190 Owner: SPXS Country: US Constellation: starlink operational

Aktuelle Ansicht

3D-Globus wird geladen...

About Starlink 38269

Starlink 38269 (NORAD 100392) is a starlink constellation satellite launched Aug 19, 2026 by SPXS of US. with a mass of 575.00 kg.

Nächste Überflüge

Passes for default location (London). Set your location on the main map for personalized predictions.

Höhenverlauf

Loading altitude history...

Zweizeiliger Elementsatz

1 A0392U 26190X 26255.57401301 .00163470 00000-0 10742-2 0 9990
2 A0392 97.2822 109.4746 0001301 56.7358 303.4031 15.75227974 5127
Epoch: 12. Sept. 2026 • Age: 16 hours

Aktueller Status

Höhe 346.2 km
Apogäum / Perigäum N/A
Geschwindigkeit 7.70 km/s
Subsatellitenpunkt 10.07°N, 146.87°W
Startdatum 19. Aug. 2026
Alter 25 days
Typ internet

Technische Details

Klassifizierung Payload
Masse 575.00 kg
Trockenmasse 530.00 kg
Gesamtmasse 575.00 kg
Länge 0.30 m
Durchmesser 4.10 m
Spannweite 29.00 m
Form Box + pan
Hersteller SPXS
Bus-Typ Starlink V2MO
Phasenstatus In Orbit
Besitzer/Staat SPXS/US

Most Searched